Content
SEND FEEDBACK

Daily
Averages
Monthly
Summary
United States of America

LEXINGTON, MISSISSIPPI


Home > North America > United States > Mississippi
Elevation: 279 feet     Latitude: 33 08N     Longitude: 090 04W

WEATHER
 
SELECT A DAY
Number of Records: 203,715;   Date Range: 1/1/95 - 8/12/14
 
SHARE

PRINT THIS DATA

[ ← Previous Day ]
WEATHER ALMANAC - JANUARY 23, 2013
[ Next Day → ]
[ °C ]   °F
Weather ElementAverageHighLow
Temperature49.6 °F63 °F (2:53 pm)42.1 °F (1:53 am)
Dewpoint38.9 °F46 °F (2:53 pm)28 °F (1:53 am)
Humidity67.6 %93 % (8:53 pm)54 % (2:53 pm)
Barometer30.28 in30.37 in (9:53 am)30.21 in (7:53 pm)
Wind Speed4.8 mph10.4 mph (12:53 pm)
Weather ElementAverage
Visibility10 mi
Wind DirectionSE (131.3 °)

Weather ElementTotal
Precipitation---
Heating Degree Days12.5 (Base 65)
Growing Degree Days2.6 (Base 50)
Averaged from 23 records on January 23, 2013
WEATHER CONDITIONS BREAKOUT
WIND DIRECTION BREAKOUT
WEATHER BY HOUR - JANUARY 23, 2013
[ °C ]   °F
Local TimeTemperatureDewpointHumidityBarometerVisibilityWind DirectionWind SpeedGust SpeedPrecipitationEventsConditions
1:53 AM42.1 °F28.0 °F58 %30.33 in10.0 miEast (100°)4.6 mphOvercast
2:53 AM42.1 °F30.0 °F62 %30.34 in10.0 miNE (50°)3.5 mphOvercast
3:53 AM42.1 °F28.9 °F60 %30.33 in10.0 miEast (90°)4.6 mphOvercast
4:53 AM42.1 °F30.0 °F62 %30.33 in10.0 miEast (80°)4.6 mphOvercast
5:53 AM43.0 °F30.0 °F60 %30.35 in10.0 miEast (100°)3.5 mphOvercast
6:53 AM43.0 °F32.0 °F65 %30.35 in10.0 miEast (90°)3.5 mph0.00 inOvercast
7:53 AM44.1 °F32.0 °F63 %30.34 in10.0 miCalmOvercast
8:53 AM45.0 °F34.0 °F65 %30.35 in10.0 miSouth (170°)4.6 mphOvercast
9:53 AM48.0 °F35.1 °F61 %30.37 in10.0 miCalmOvercast
10:53 AM52.0 °F39.9 °F63 %30.35 in10.0 miSouth (180°)6.9 mphOvercast
11:53 AM55.0 °F43.0 °F64 %30.31 in10.0 miSW (220°)6.9 mphMostly Cloudy
12:53 PM59.0 °F45.0 °F60 %30.27 in10.0 miSW (220°)10.4 mphMostly Cloudy
1:53 PM61.0 °F45.0 °F56 %30.25 in10.0 miWSW (240°)9.2 mphMostly Cloudy
2:53 PM63.0 °F46.0 °F54 %30.23 in10.0 miSW (230°)6.9 mphOvercast
3:53 PM63.0 °F46.0 °F54 %30.23 in10.0 miSW (220°)10.4 mphClear
4:53 PM59.0 °F46.0 °F62 %30.22 in10.0 miSW (220°)8.1 mphScattered Clouds
5:53 PM54.0 °F45.0 °F72 %30.22 in10.0 miSW (220°)3.5 mphClear
6:53 PM50.0 °F44.1 °F80 %30.22 in10.0 miCalmScattered Clouds
7:53 PM46.0 °F43.0 °F89 %30.21 in10.0 miSouth (170°)3.5 mphClear
8:53 PM44.6 °F42.8 °F93 %30.21 in10.0 miCalmClear
9:53 PM45.0 °F41.0 °F86 %30.22 in10.0 miCalmClear
10:53 PM48.9 °F44.1 °F83 %30.22 in10.0 miSSW (210°)8.1 mphClear
11:53 PM48.9 °F44.1 °F83 %30.22 in10.0 miSSW (210°)8.1 mphClear
Hourly data recorded from KGWO, located miles away from Lexington, Mississippi







STORIES FROM OUR PARTNERS